STARLINK-5294, 54159

Orbit data source: Space-Track

STARLINK-5294, 54159 is a payload satellite owned by SpaceX/Seattle (US) in LEO that was launched on Fri, 28 Oct 2022 UTC via an FALCON 9 launch vehicle from the Air Force Western Test Range (AFWTR). Payload-class satellites include a variety of spacecraft equipped with specific instruments for various scientific and technological missions. These include communications satellites like Starlink; space stations such as the ISS; scientific satellites like the Hubble; Earth observation satellites from companies like Planet Labs, Umbra, and HawkEye 360; GPS; miniature CubeSats for education and research; and military/defense satellites.

Loading next visibility...
Identifier
54159, 2022-141C
Orbit
LEO
Country
Flag of USUS
Related business
Manufacturer
SpaceX/Seattle
Mission
Operational Commercial Communications
Bus & Motor
STARLINK, Unknown motor
Mass
305 kg wet, ~290 kg dry
Launch date (UTC)
2022-10-28 (4 years ago)
Launch vehicle
FALCON 9
Launch site
Air Force Western Test Range (AFWTR)
Object type
Payload
Rocket body
Debris
Shape & HBR
Box + 1 Pan, 10.1 m
Radar Cross Section
13.562 m², Large (>1 m²)

Expand to show TLE details & history
Last TLE update: 3 days ago

TLE from 3 days ago
0 STARLINK-5294
1 54159U 22141C   26170.68438726  .00000894  00000-0  74285-4 0  9995
2 54159  53.1605 276.2385 0001164  85.8543 274.2582 15.08836982201119
Epoch: 2026-06-19T16:25Z
TLE epoch observation values (Epoch: 2026-06-19T16:25:31.059Z)
Latitude
0.00003°
Longitude
121.94928°
Altitude
540.584 km
Speed
7.593 km/s
True Right ascension
18h 24m 57s
True Declination
0° 00' 00"
Sunlit
Object was in full shadow at epoch
Visualization orbit readout
Latitude
Unknown
Longitude
Unknown
Altitude
Unknown
Speed
Unknown
Apparent Right ascension
Unknown
Apparent Declination
Unknown
Sunlit
N/A
Visualization observer readout
Local Sidereal Time
21:29:32
Azimuth
Unknown
Elevation
Unknown
Doppler factor
Unknown
Orbital elements
Apogee altitude
540.812 km
Perigee altitude
539.201 km
Semi-major axis
6,918.144 km
Eccentricity
0.00012
Inclination
53.1605°
RAAN
276.2385°
Arg. of periapsis
85.8543°
True anomaly
274.2449°
Mean anomaly
274.2582°
Eccentric anomaly
274.25155°
Mean motion
3.77189 °/min
Orbital period
95.44 mins
BSTAR
0.000074285
Loading maneuver chart data...
Computing Atmospheric mass density...
Loading historical data...
Loading historical data...
Loading historical data...
Loading historical data...
Loading historical data...
Loading historical data...
Loading historical data...

Documentation

Showing up to 5 results
|